Theta_e
353 353 348 344 341 338 333 331 328 328 331 336 340 342 345 343 343 340 338 335 332 331 329 330 333 332 333 339 341 342 341 342 340 336 334 336 333 329 328 328 329 329 329 331 332 330 332 337 338 339 340 341 339 336 337 339 338 338 338 338 338 337 337 337 336 336 336 336 336 336 336 335 335 335 335 334 334 334 334 335 334 334 334 334 335
354 352 348 344 341 337 333 331 327 328 329 334 338 340 343 342 342 339 337 334 332 330 329 333 335 333 336 340 341 343 342 341 341 337 333 333 334 330 327 327 328 328 331 335 334 334 339 341 340 340 340 341 339 337 339 338 338 337 337 337 337 336 337 336 336 337 337 337 336 336 335 335 334 335 334 334 334 335 335 335 334 334 333 333 334
353 351 347 343 340 336 332 330 328 327 328 332 335 339 341 340 341 339 338 336 333 330 331 336 336 334 337 339 340 342 342 341 340 339 334 331 333 332 329 328 331 333 336 338 338 340 343 343 341 341 340 340 340 339 340 339 339 337 337 336 335 336 337 337 337 336 335 334 334 334 334 334 334 334 334 333 334 334 334 333 333 333 333 332 333
352 351 347 343 339 335 332 329 327 327 327 331 333 337 339 340 341 339 340 338 335 333 334 338 337 336 337 339 340 342 342 341 341 340 337 333 332 332 332 330 332 336 339 340 340 342 343 342 340 340 339 339 339 340 339 338 339 338 338 336 335 336 337 338 336 334 333 333 335 335 335 334 334 334 334 333 333 332 333 332 332 332 332 332 333
352 350 346 342 338 335 332 329 327 327 327 328 330 334 336 338 339 340 340 339 338 336 338 339 337 336 337 338 340 342 342 341 341 341 340 338 337 336 336 336 337 338 340 341 341 342 342 341 340 339 339 339 339 340 339 337 338 337 337 336 335 337 338 336 334 334 336 337 338 338 338 335 334 334 334 333 331 331 332 332 332 331 331 332 332
352 350 346 344 339 334 332 330 327 327 327 327 327 329 331 332 336 339 340 340 339 339 340 339 337 336 337 339 341 342 341 340 338 338 338 338 337 338 340 340 341 342 342 342 342 342 341 339 339 338 339 339 340 340 339 338 336 335 335 335 335 337 336 333 334 336 338 339 339 340 338 336 334 333 333 333 332 332 332 332 332 332 331 331 331
351 349 347 346 342 335 332 330 328 327 327 327 327 327 327 328 331 336 339 340 340 339 338 336 335 336 338 340 341 341 339 336 334 334 335 336 336 338 341 341 342 342 342 342 341 341 340 338 338 338 338 338 340 339 339 338 336 336 336 335 336 337 333 330 334 338 338 340 340 340 339 338 335 333 332 332 333 332 332 332 332 332 331 330 331
350 350 348 347 343 336 333 331 328 328 327 327 327 327 327 326 327 331 334 336 335 335 334 333 335 338 340 341 339 337 335 333 333 334 335 337 337 339 340 340 341 341 341 340 339 339 339 338 338 338 338 339 339 338 338 337 336 337 336 337 337 337 333 328 334 338 338 339 339 339 339 338 335 333 333 333 332 331 332 331 331 332 332 331 331
350 350 349 348 342 336 334 331 329 328 327 327 327 327 327 327 326 327 329 330 330 330 331 334 337 339 339 338 335 333 332 333 335 335 336 337 336 337 336 338 339 340 339 339 339 338 338 338 338 338 338 338 338 337 336 336 336 336 337 337 336 337 333 328 334 338 338 338 337 339 339 338 336 334 334 333 331 331 331 331 331 331 331 332 332
350 349 349 348 341 336 335 332 329 328 327 328 327 327 327 327 327 327 328 328 329 330 333 336 338 338 336 333 331 331 333 334 335 335 336 336 335 334 334 334 336 338 338 339 339 338 338 338 338 338 338 338 338 336 334 335 335 336 337 337 336 336 331 327 335 338 338 338 337 339 338 338 336 334 332 331 332 332 332 331 331 331 331 331 331
350 350 350 347 339 336 335 332 329 328 328 327 328 327 327 328 327 327 328 329 330 332 335 337 337 335 332 329 329 332 333 334 335 336 336 337 337 336 334 332 333 337 338 338 338 338 339 338 338 338 338 337 336 335 335 335 335 336 336 335 335 333 329 330 337 338 337 338 337 337 337 336 334 332 331 330 331 330 329 330 331 331 331 331 331
348 349 350 345 338 336 335 333 330 328 328 328 328 328 328 327 327 327 327 328 330 333 335 334 332 330 329 329 330 332 333 334 335 336 337 337 338 337 334 333 333 334 336 337 337 338 338 337 338 337 337 336 335 335 335 335 334 334 333 333 333 330 330 334 337 337 336 337 336 336 336 336 333 331 331 329 330 329 329 330 330 330 330 330 330
345 349 350 345 339 337 336 334 331 329 328 328 328 328 328 328 327 327 326 327 328 331 331 328 327 326 327 328 330 331 331 334 335 337 337 337 338 338 335 333 333 332 333 336 336 337 336 337 337 337 336 335 334 333 332 331 330 330 329 329 328 328 333 335 336 336 336 336 336 336 335 334 332 331 331 331 330 330 330 330 330 329 330 330 330
344 348 348 346 341 338 336 335 333 330 328 328 328 328 328 329 328 327 326 326 327 327 327 326 326 326 327 329 330 330 332 334 335 336 336 337 337 337 336 333 332 330 330 334 335 335 335 336 336 336 335 333 331 330 330 330 331 330 328 327 325 328 334 334 335 335 335 336 336 335 335 334 331 331 332 331 330 329 329 329 330 329 330 330 330
345 346 346 346 344 340 337 336 334 331 330 328 328 328 329 329 329 328 327 327 327 327 327 328 329 328 329 331 332 332 333 335 335 336 336 336 336 337 336 333 332 331 330 331 334 334 335 336 335 334 333 331 329 330 330 329 332 332 329 327 326 330 333 335 336 334 335 335 334 334 335 333 330 331 332 331 329 329 329 329 329 329 330 329 329
345 344 344 344 345 343 341 337 335 333 332 329 329 329 329 330 329 329 329 328 329 329 329 330 331 331 332 332 334 335 335 336 336 337 336 336 336 336 336 334 332 333 331 330 333 335 336 335 334 333 331 330 331 331 329 328 332 333 331 329 330 332 333 336 336 334 334 334 334 335 335 331 329 331 332 330 329 329 329 329 329 329 329 329 329
345 344 344 343 344 345 343 340 337 336 334 331 331 331 330 331 330 330 330 330 330 331 332 333 333 334 335 335 336 336 336 337 337 337 336 335 335 335 336 334 332 333 333 333 334 336 337 336 334 332 331 331 332 331 328 327 331 333 332 331 332 333 333 335 335 335 335 333 334 335 334 330 330 332 331 330 329 328 328 329 328 328 329 329 329
345 344 343 343 342 343 345 344 340 338 337 335 333 331 331 332 332 332 332 333 333 333 334 335 335 336 335 337 337 336 336 338 337 337 337 335 334 334 336 335 333 333 333 334 335 336 336 335 334 333 332 332 331 331 328 327 329 331 332 332 332 332 334 334 335 334 332 334 334 335 335 330 329 332 331 330 329 328 328 328 328 328 328 328 328
345 344 343 342 342 342 344 344 342 340 340 338 335 332 331 333 333 333 333 334 335 335 335 334 335 337 336 337 337 336 336 338 339 338 338 336 334 334 335 335 335 334 333 334 336 336 336 335 334 333 332 331 331 331 328 326 328 330 330 332 332 331 333 334 335 333 332 334 334 335 334 328 329 332 330 330 329 328 328 327 328 328 328 328 327
345 345 344 343 344 343 343 343 344 342 342 341 339 336 332 332 332 332 334 335 336 336 336 335 335 337 337 336 336 336 337 338 338 338 338 337 334 333 334 335 336 335 333 334 335 336 335 334 333 332 332 331 331 332 330 326 327 329 329 331 332 330 333 334 334 332 332 332 333 334 329 326 330 331 330 330 329 328 327 327 327 327 327 327 327
344 345 345 344 344 344 341 342 344 342 343 343 342 340 336 333 332 331 333 335 336 336 336 336 337 337 337 337 336 336 337 338 338 338 338 337 335 334 334 334 334 335 334 334 335 335 334 334 333 333 332 331 331 332 331 327 325 328 329 329 330 331 334 335 333 332 333 331 333 335 326 326 331 331 330 329 328 328 327 327 327 327 327 327 327
343 344 343 343 343 344 342 341 344 343 344 344 343 343 339 336 335 334 334 335 336 334 335 337 338 337 336 337 337 337 338 339 339 338 338 337 335 335 334 333 334 335 335 334 334 333 332 332 332 332 331 330 330 330 330 328 325 327 329 329 330 334 336 334 332 331 331 332 333 331 323 326 331 331 330 329 328 327 327 327 327 326 326 327 326
341 341 341 340 339 340 341 341 343 344 344 344 343 343 341 340 339 338 337 338 338 335 336 338 338 337 337 338 338 339 338 338 338 337 336 335 335 336 334 331 331 333 333 334 334 334 332 330 330 330 329 329 328 328 329 329 328 328 328 330 333 335 336 335 332 330 330 332 333 328 322 326 331 331 329 329 328 327 327 326 326 326 326 326 326
340 339 338 339 339 338 340 341 342 343 344 344 343 343 342 342 341 341 340 340 339 338 338 338 338 338 338 338 338 338 337 336 337 337 335 334 334 335 334 332 330 330 330 333 334 333 334 331 329 328 328 328 328 329 329 329 330 330 330 332 334 335 336 336 333 331 330 332 332 327 324 327 330 330 329 329 328 328 327 325 325 325 326 326 326
339 337 338 338 339 339 337 338 340 341 342 343 343 343 341 341 342 341 341 341 340 339 338 338 338 338 338 338 338 338 337 336 336 337 335 332 333 333 334 333 332 331 328 330 333 332 333 333 330 328 329 330 330 330 329 328 328 330 331 332 333 334 335 336 334 333 331 332 331 326 326 330 331 330 330 329 328 328 327 325 323 321 324 326 325
338 336 337 338 338 338 337 336 336 337 340 340 341 341 340 341 340 339 340 340 340 339 338 338 338 337 337 337 336 336 336 335 335 336 334 333 334 334 334 334 334 333 330 329 332 332 332 332 332 330 329 330 330 330 330 329 329 329 329 331 332 333 334 335 334 333 332 333 330 325 327 330 331 331 331 329 327 328 328 326 324 319 319 325 325
337 337 337 338 337 336 336 336 335 336 338 337 338 339 340 339 338 339 339 339 339 339 339 338 338 338 338 336 335 336 336 335 334 334 333 334 335 334 333 333 333 334 332 330 332 333 332 332 334 332 330 330 330 330 330 330 330 329 329 330 331 332 333 334 334 333 332 334 330 324 326 329 331 331 331 330 328 328 328 327 326 321 317 321 325
336 337 337 336 335 335 334 335 335 336 336 335 334 336 338 337 337 338 338 338 339 338 337 338 339 338 338 337 336 336 336 334 334 334 334 334 334 333 332 334 334 335 335 333 334 334 332 331 332 332 331 330 330 329 330 330 330 330 329 329 331 331 332 333 334 334 333 334 332 325 326 328 329 331 331 331 329 329 329 327 327 324 318 318 321
335 335 335 333 333 333 332 333 334 334 334 334 334 334 336 337 337 337 337 338 338 337 336 337 339 338 337 338 337 336 335 334 334 334 335 334 333 333 333 334 333 334 335 334 334 332 331 331 331 331 330 329 330 329 329 330 330 330 329 329 330 330 331 332 334 334 332 333 334 329 327 327 328 329 330 331 331 330 329 328 327 326 324 321 320
336 336 334 332 331 331 332 332 332 332 332 333 333 334 334 334 335 336 338 338 338 337 337 337 337 336 336 338 337 336 335 335 334 335 335 335 335 336 335 334 334 334 334 335 334 331 330 331 330 331 330 329 329 329 329 329 329 329 329 329 329 330 330 331 332 333 332 331 333 332 328 327 328 328 329 330 331 331 330 329 328 327 326 325 323
335 335 333 332 331 330 330 330 331 332 330 330 331 332 333 331 332 334 336 337 338 338 337 336 336 334 335 337 337 336 336 336 336 336 336 336 337 337 336 335 335 335 335 335 333 330 331 331 331 330 329 328 327 327 328 328 328 329 329 328 328 329 330 331 331 331 331 330 332 332 330 327 328 328 328 329 330 331 331 330 329 328 327 326 326
335 334 333 332 331 329 330 330 332 331 330 330 330 331 331 330 331 332 335 338 339 338 336 337 335 334 335 335 336 335 336 336 336 337 337 336 336 336 335 336 335 335 335 335 333 332 332 330 330 329 328 328 326 326 327 327 327 328 328 327 326 328 329 330 331 330 330 330 330 332 332 330 328 328 328 327 328 330 332 331 329 329 328 327 327
334 334 334 332 331 331 330 331 331 329 330 331 330 330 330 330 331 332 337 339 339 338 337 337 335 335 335 334 335 335 335 335 336 337 337 336 337 336 336 336 336 336 336 335 334 333 332 331 329 327 326 327 326 327 327 327 327 327 327 326 326 327 328 328 329 329 329 329 329 330 332 332 330 328 328 328 328 328 330 331 330 329 329 329 327
333 335 333 332 333 333 331 333 332 328 331 332 330 330 330 330 331 332 335 337 337 337 336 336 336 336 336 334 333 334 335 335 337 338 337 336 337 337 336 336 336 337 336 335 333 332 333 333 329 326 326 326 327 327 327 327 327 327 328 327 327 326 327 328 328 328 329 329 329 328 330 332 332 330 329 329 328 327 328 329 330 331 330 330 328
333 334 333 332 333 335 334 335 333 331 332 332 331 332 331 329 328 330 332 332 333 334 334 335 335 336 336 335 333 332 334 335 336 337 337 336 335 336 336 336 336 336 336 335 333 331 332 333 329 327 327 326 326 327 327 327 327 326 328 329 329 328 328 328 327 327 329 329 329 329 330 330 331 332 331 331 329 328 328 327 328 329 330 330 329
333 333 333 333 334 337 337 335 334 334 333 333 334 334 332 330 328 329 329 328 328 329 331 333 334 335 335 335 335 333 334 335 336 337 337 336 335 335 336 336 335 335 336 336 334 331 331 332 330 329 328 327 327 328 328 328 327 328 329 330 330 330 330 329 329 328 328 329 329 329 330 330 330 331 332 333 332 330 329 328 327 327 329 329 329
333 332 333 333 334 336 335 334 333 335 335 334 335 334 331 330 329 328 327 326 326 326 327 328 330 332 333 334 335 335 334 335 336 336 336 336 336 335 336 336 335 335 336 336 334 332 331 332 331 330 330 330 329 329 329 330 330 330 331 332 331 330 330 329 329 329 329 328 328 329 329 330 330 330 331 332 333 333 331 329 328 327 328 328 328
334 333 334 334 335 334 334 334 334 335 335 334 335 333 331 329 327 326 324 325 326 326 326 326 327 328 330 331 332 333 335 335 335 335 335 335 335 335 335 336 336 335 336 335 333 332 331 332 332 332 332 332 332 330 331 331 330 330 331 331 332 331 330 330 329 329 328 328 328 328 329 329 330 331 331 331 331 333 333 331 330 328 328 328 328
336 335 335 334 335 334 335 336 335 335 335 335 334 331 329 328 325 324 324 324 325 325 326 326 326 327 328 329 329 331 332 334 333 333 334 334 334 335 334 335 335 333 333 333 332 331 332 333 333 334 335 334 332 331 331 332 331 331 331 331 332 331 330 330 330 329 328 328 328 328 328 329 329 330 331 332 331 331 333 332 330 329 329 328 327
339 337 336 335 336 336 336 336 335 335 333 334 332 328 327 326 324 325 324 324 325 325 325 325 325 326 326 327 327 328 328 330 330 330 331 331 332 334 334 335 335 332 331 333 332 331 332 333 333 334 336 334 333 332 332 332 333 333 332 331 331 330 330 331 330 330 330 329 329 328 328 328 329 330 331 331 331 330 332 332 332 332 331 330 328
340 339 338 336 336 336 337 337 335 334 331 331 329 326 326 324 323 324 323 323 323 323 324 325 325 325 325 326 326 326 326 326 326 326 327 328 329 331 332 333 333 331 331 331 331 331 332 333 332 333 335 334 333 334 333 332 333 334 333 331 330 328 330 331 331 331 330 330 330 330 331 330 329 330 330 330 330 331 331 331 332 332 332 331 330
339 338 338 337 337 335 336 336 335 333 330 329 328 326 324 323 322 323 322 322 321 322 323 324 324 324 324 324 325 325 325 324 324 324 325 326 326 327 328 329 330 330 330 330 331 330 331 332 332 332 333 333 333 333 333 333 333 334 333 332 332 330 330 331 331 331 330 330 330 330 331 331 331 331 331 331 331 331 331 331 331 331 331 331 331
338 337 337 337 337 335 335 336 334 331 329 328 327 326 324 323 323 321 321 321 323 324 323 324 324 322 322 322 322 323 324 324 323 323 323 324 324 324 326 327 328 329 330 330 330 330 331 332 332 331 331 331 331 331 333 333 332 332 332 332 332 332 332 331 331 331 330 331 331 330 330 330 331 330 331 332 332 333 332 331 331 331 331 330 331
336 336 337 337 337 335 334 335 333 329 328 328 327 326 324 325 324 323 323 322 322 323 322 322 322 321 321 321 321 323 324 324 323 322 322 322 323 323 324 325 326 327 328 329 329 330 331 331 331 331 330 329 329 330 331 331 330 331 332 332 331 331 332 332 333 332 331 331 331 331 331 330 329 329 329 331 331 333 333 332 332 331 331 331 331
335 335 336 337 337 334 334 335 332 329 329 327 327 327 324 324 324 323 323 321 321 321 322 321 321 321 321 322 322 324 324 323 323 322 321 321 322 322 323 323 324 325 325 326 328 329 329 328 328 330 330 328 328 328 329 330 330 330 331 332 332 332 333 333 333 333 332 331 330 330 330 329 330 330 329 329 329 331 332 333 333 332 332 332 331
335 336 336 336 336 333 333 335 331 329 329 327 328 326 322 322 322 320 319 319 320 321 321 321 321 321 321 322 323 323 323 323 323 322 321 321 320 321 321 321 322 323 323 324 324 325 326 327 328 329 330 329 329 328 328 329 329 329 329 330 331 331 333 332 331 331 331 329 329 330 329 329 329 330 330 329 329 329 329 330 332 332 333 332 332
333 335 336 336 336 332 333 335 331 329 329 327 327 324 321 321 319 318 318 319 320 321 321 321 321 321 321 322 322 322 323 323 322 322 321 321 320 320 320 320 320 320 321 321 322 322 322 323 325 327 327 328 329 328 327 328 329 328 329 330 329 329 330 330 330 330 330 329 329 329 329 329 329 330 331 330 329 329 329 329 330 331 332 333 333
333 335 336 336 334 332 333 333 331 329 329 327 326 323 322 322 320 319 319 318 320 321 321 321 320 320 320 321 321 322 322 322 323 322 321 321 321 321 321 320 320 319 320 320 321 322 322 322 323 324 325 326 326 326 325 326 327 327 328 328 328 328 328 328 328 329 329 329 330 330 328 328 329 329 329 329 329 330 331 331 331 330 331 331 332
333 334 335 335 334 331 333 333 330 330 329 327 326 323 322 322 320 320 319 319 320 320 320 320 319 320 320 320 321 321 322 322 322 322 321 321 320 320 320 319 318 317 318 318 319 320 320 321 322 322 322 323 323 324 324 324 324 325 325 325 326 327 326 327 327 328 327 327 329 329 328 328 329 329 328 329 330 330 330 330 330 331 331 330 330
333 334 334 335 333 331 332 332 330 330 329 328 325 323 322 322 321 320 319 319 320 318 319 320 320 321 320 320 321 320 321 321 322 320 319 317 317 316 316 315 315 314 314 315 316 317 318 318 319 320 321 321 321 322 323 322 322 322 323 323 323 323 324 325 326 326 325 326 326 326 326 327 328 327 327 328 328 327 327 328 329 329 329 329 329
332 333 334 333 332 332 332 331 329 329 329 328 325 323 323 322 321 320 319 320 320 319 320 320 320 321 320 319 320 320 320 320 320 319 317 315 315 314 314 313 313 314 314 314 315 315 316 317 318 318 319 320 319 320 320 319 320 319 320 320 320 321 321 321 323 322 322 322 322 322 321 321 321 322 323 324 324 325 326 326 326 326 326 328 328
Wind_Speed
18 21 24 24 22 21 19 19 17 17 16 16 16 16 16 16 17 17 17 17 17 17 16 15 14 15 15 14 13 13 14 14 15 15 15 15 16 16 14 14 13 12 12 10 9 8 9 9 8 8 8 8 7 9 11 11 11 12 12 12 12 12 12 13 13 14 14 14 15 15 14 14 14 14 14 14 15 14 11 12 13 13 14 14 15
20 22 23 25 23 22 20 19 18 18 17 17 16 16 16 16 17 17 17 17 17 17 16 15 14 15 15 13 13 13 13 13 14 15 15 15 16 16 14 12 12 11 11 10 9 8 9 9 8 9 9 8 8 9 10 10 10 10 11 10 10 11 11 12 12 13 13 13 14 14 14 14 13 13 12 11 11 11 9 10 12 12 13 14 15
23 22 23 25 23 22 21 20 19 18 18 17 17 17 16 16 16 16 16 16 16 16 16 15 14 15 14 13 13 13 13 12 13 13 14 15 16 16 15 13 12 11 10 9 9 9 9 9 8 9 9 8 8 8 9 9 9 9 9 9 10 10 10 11 12 12 12 12 13 14 14 14 13 12 11 11 11 12 13 14 14 13 14 14 13
23 22 24 25 24 23 21 20 19 19 18 17 17 17 16 16 15 15 15 15 15 15 16 15 15 15 13 12 13 13 12 12 12 12 13 14 14 15 14 13 12 11 10 9 9 9 9 8 8 9 9 8 8 8 7 8 9 9 9 9 10 10 11 11 10 11 11 12 15 15 13 13 12 11 12 12 11 13 13 14 14 14 14 13 13
22 22 24 26 24 23 22 21 20 19 18 17 17 16 16 15 14 14 14 14 15 15 15 15 14 14 13 12 12 13 12 12 12 12 13 13 13 13 12 11 11 11 11 10 9 9 8 8 8 8 8 8 8 7 6 6 8 8 7 8 9 11 10 9 9 12 13 13 13 11 10 11 11 11 12 11 12 14 14 14 14 14 13 12 13
22 22 24 24 22 23 22 22 20 19 18 17 17 17 16 15 14 14 14 15 15 15 15 14 13 13 13 12 12 14 14 14 13 13 13 12 11 11 10 10 9 9 10 9 9 8 7 7 7 7 8 8 8 7 6 6 7 7 6 7 8 10 9 8 11 12 11 11 10 7 8 10 10 11 11 11 12 13 13 13 13 13 13 12 13
22 23 23 22 22 23 23 22 21 20 19 18 17 17 16 16 15 14 14 15 15 14 14 14 13 13 13 13 13 14 15 15 15 14 13 12 10 10 9 9 8 8 8 7 7 7 7 7 7 7 7 8 8 7 6 5 7 6 6 7 7 8 7 8 11 9 7 6 5 6 7 9 10 10 10 11 11 11 12 12 12 12 12 12 12
20 22 22 21 22 24 24 23 22 21 19 19 18 18 17 16 15 15 15 14 15 14 14 14 14 14 14 14 14 14 15 15 14 14 13 12 11 10 9 9 8 8 8 7 6 6 6 6 7 7 7 8 8 7 6 5 6 5 6 6 6 6 5 7 9 9 9 5 3 6 7 8 9 10 9 10 10 10 11 11 12 11 11 11 12
19 21 21 20 23 26 24 23 22 21 20 19 19 18 17 16 16 15 15 14 14 14 14 14 14 14 14 14 14 14 14 13 13 12 12 12 11 11 10 10 9 9 8 7 7 7 7 6 6 7 8 8 7 7 6 5 5 5 6 5 4 3 3 7 8 8 8 5 5 6 6 8 10 10 9 10 10 9 9 10 11 10 11 11 11
18 20 20 19 24 26 24 23 22 21 21 20 20 18 17 16 16 15 15 14 14 14 14 14 15 15 15 14 14 14 13 12 12 11 11 10 10 9 9 9 9 9 10 9 9 8 7 7 7 7 7 7 7 6 6 5 5 5 5 4 3 1 3 8 9 9 5 4 5 6 7 10 10 10 9 8 8 8 8 10 11 10 11 11 11
19 18 19 20 25 26 24 23 22 21 21 20 20 18 18 17 16 16 15 15 14 14 14 15 15 15 15 14 14 14 13 12 11 11 10 9 8 8 8 8 9 9 10 10 10 9 8 8 8 8 7 6 7 6 6 5 5 4 3 2 1 1 4 7 6 5 3 5 6 6 7 10 10 9 8 8 8 8 9 10 10 9 10 11 11
19 18 18 22 26 25 24 23 22 21 21 20 19 18 18 17 17 16 16 15 15 15 15 15 15 15 14 14 14 14 13 12 11 10 9 8 7 7 7 7 8 9 9 10 10 10 9 9 8 7 6 6 6 6 6 4 4 2 1 1 1 2 5 4 2 1 3 6 6 6 7 9 9 8 9 10 10 9 10 10 10 10 11 10 10
19 19 19 23 25 24 23 22 22 21 21 20 19 19 18 18 17 17 17 16 16 16 16 16 15 15 14 14 14 13 12 11 11 10 9 8 7 7 7 7 8 8 9 10 10 9 10 9 8 6 5 5 5 5 5 4 3 2 2 1 2 6 7 6 4 1 3 5 5 6 7 8 9 9 10 10 10 10 10 10 10 11 11 10 10
18 19 21 22 23 23 23 21 21 20 21 20 20 19 18 18 17 17 16 16 16 16 16 15 14 14 14 14 13 12 11 11 10 10 9 8 7 6 6 6 7 8 9 10 9 8 9 9 7 6 5 5 4 5 7 6 5 5 4 3 6 10 8 6 4 2 4 4 5 5 7 9 9 9 9 9 9 9 9 10 10 11 10 10 10
17 18 20 20 22 22 22 21 20 19 20 20 20 19 18 18 17 17 16 16 16 16 15 14 14 13 13 13 12 11 11 10 10 10 9 8 7 7 6 6 6 7 8 9 9 8 9 8 8 7 6 6 6 6 7 7 7 6 5 5 7 8 5 1 1 3 4 3 4 5 8 9 8 8 8 9 9 9 9 9 10 10 10 10 10
16 16 17 18 21 21 22 22 20 19 20 20 19 19 18 18 17 17 17 17 16 15 14 13 13 13 13 12 11 10 10 10 10 9 9 8 8 7 7 7 6 6 7 9 9 8 8 8 8 7 7 8 7 6 5 6 7 6 5 5 5 5 3 1 2 2 3 3 4 5 8 7 7 8 8 9 9 9 8 9 10 10 10 10 10
15 15 16 18 20 20 21 21 21 21 21 20 19 19 19 18 17 17 16 16 15 14 13 13 12 12 11 10 10 9 9 10 10 9 9 9 8 7 7 7 7 6 8 9 9 8 8 8 8 7 8 8 6 4 3 5 7 6 5 5 5 4 4 4 2 1 3 4 4 5 9 9 9 9 8 9 9 9 9 8 9 9 10 9 9
14 14 15 17 18 19 20 21 22 21 20 20 19 19 19 18 17 16 16 15 14 13 12 12 11 11 10 9 8 7 8 9 9 9 8 9 8 7 8 8 8 7 8 10 10 9 8 8 8 9 10 7 5 3 2 3 5 7 6 5 5 6 6 6 3 2 3 3 3 6 8 7 8 8 7 8 9 9 8 8 8 8 9 9 8
13 13 14 14 16 17 19 21 21 20 20 19 18 19 19 18 17 16 15 14 13 13 12 12 12 10 9 8 7 7 8 8 9 9 9 9 8 7 7 8 8 7 9 10 10 10 8 8 9 10 9 6 4 3 1 1 3 6 6 5 5 7 7 4 1 3 4 2 4 7 7 5 7 8 7 8 8 8 8 8 8 8 8 8 8
12 12 12 12 13 14 17 19 17 17 17 17 16 18 20 18 16 16 15 14 13 12 12 12 12 10 9 9 9 8 7 8 10 9 9 10 8 7 7 8 8 8 9 9 9 9 9 9 10 11 8 6 5 4 3 1 1 3 5 5 5 6 3 4 2 2 4 3 4 5 3 4 7 7 7 7 7 7 8 8 8 7 7 7 8
11 11 11 11 11 12 16 17 15 13 13 14 14 15 18 19 17 16 15 14 13 12 12 11 10 9 9 9 9 9 8 8 9 9 10 10 10 8 8 8 9 9 9 9 9 9 9 10 11 11 9 7 5 4 4 4 3 0 2 4 4 4 2 2 1 2 2 3 5 1 2 5 8 7 7 7 7 7 7 7 7 7 7 7 8
12 11 10 11 11 11 14 15 14 12 11 12 12 12 16 19 16 16 15 13 13 12 11 9 9 8 9 9 8 8 9 8 8 10 11 11 11 10 9 9 10 10 10 10 9 9 9 10 11 11 10 8 6 5 5 6 5 3 2 2 3 4 4 3 4 3 2 4 5 1 1 7 8 7 7 6 6 6 6 6 7 6 6 6 7
11 11 10 10 11 12 14 15 15 14 12 11 11 10 13 17 14 13 13 11 12 12 11 10 9 9 9 9 8 9 9 9 10 11 11 12 12 11 10 10 10 9 10 10 10 10 10 10 11 11 11 9 7 7 6 5 6 5 4 5 5 5 5 4 4 4 3 5 3 2 2 10 9 7 7 5 5 6 6 6 6 6 6 6 6
11 11 11 9 9 11 14 17 16 15 13 11 10 10 11 13 11 12 13 12 12 11 12 12 11 11 10 10 10 9 7 9 11 11 11 12 12 12 12 12 11 10 10 10 9 9 10 11 12 12 11 10 9 8 7 6 6 5 5 6 6 6 6 5 4 4 4 7 3 3 4 10 8 7 6 6 6 6 5 5 6 6 6 6 5
11 10 10 10 8 8 11 14 14 14 12 11 10 10 11 11 10 13 12 11 11 12 14 14 14 13 11 10 9 7 7 7 8 9 11 11 10 12 12 13 12 12 11 10 10 10 10 11 13 13 11 10 10 9 8 7 7 7 6 6 7 6 6 6 5 5 5 8 2 2 6 10 7 7 6 6 6 6 4 3 4 6 7 6 5
10 10 9 9 9 7 8 10 12 14 13 11 10 10 11 11 10 11 11 10 10 12 14 13 13 12 9 9 8 7 7 6 6 9 11 11 11 12 13 13 13 13 13 12 11 11 10 11 12 12 12 11 10 10 8 7 7 7 7 6 7 7 7 6 5 5 5 7 3 2 4 9 8 6 6 6 5 6 5 3 3 4 7 7 5
9 9 10 8 9 8 8 8 8 10 11 11 11 10 11 12 11 11 11 11 10 10 12 11 10 9 8 8 10 8 6 5 6 9 12 12 13 14 13 12 12 12 13 12 11 10 10 10 10 10 10 9 9 10 10 8 7 7 7 7 7 7 7 7 6 5 5 7 4 1 3 7 8 7 6 5 5 6 5 4 4 2 5 7 6
10 9 10 9 9 8 8 8 7 7 6 7 8 10 10 11 11 12 12 12 11 11 12 10 9 10 10 9 9 8 6 6 8 11 13 13 13 13 12 13 12 10 11 11 9 9 9 9 9 9 8 9 9 10 10 9 9 8 8 7 7 7 7 6 6 5 5 7 6 2 3 5 8 9 7 5 4 6 5 5 5 2 4 6 6
11 10 9 9 9 8 8 7 7 6 5 3 4 6 6 7 8 9 10 11 11 12 12 12 12 11 10 8 8 9 9 10 12 14 15 14 12 11 12 13 12 10 10 9 9 9 9 8 8 8 8 8 8 9 10 10 9 8 8 8 7 7 7 7 6 6 6 7 7 4 3 4 6 8 8 6 5 5 5 5 4 3 3 4 4
11 11 9 8 9 9 8 8 7 6 5 4 2 3 3 4 5 5 5 6 7 7 8 10 9 9 9 8 9 9 9 11 12 12 11 11 11 10 10 10 9 9 9 8 8 8 7 7 6 7 7 8 8 9 9 10 10 9 9 9 8 8 8 8 8 7 8 7 8 6 3 2 5 6 7 7 7 6 5 5 5 4 4 4 3
12 11 9 8 9 9 9 8 8 6 4 4 3 2 2 3 4 4 4 3 3 3 4 4 4 6 7 7 8 9 10 10 11 10 9 8 8 8 9 9 9 9 8 6 6 7 6 6 6 7 7 7 7 8 9 10 11 10 11 11 10 9 9 9 9 9 9 8 9 8 5 4 4 5 6 7 9 8 6 5 5 5 4 4 4
13 12 9 10 9 8 9 9 8 6 3 4 3 2 2 2 2 2 2 3 3 2 2 2 2 5 6 6 8 8 9 9 8 9 7 6 6 7 7 9 9 9 8 6 4 4 5 5 6 7 6 6 7 8 8 10 12 12 12 12 11 11 10 10 10 9 10 9 9 9 8 7 5 5 6 6 8 9 8 7 6 6 5 5 5
13 12 11 12 9 8 10 8 8 7 3 3 3 2 2 1 1 1 2 2 2 1 2 2 3 5 6 6 7 7 7 7 6 6 6 6 6 6 6 8 9 9 8 7 5 4 3 4 4 5 7 8 8 9 9 10 12 13 13 12 12 12 11 11 11 11 10 10 9 9 9 9 8 7 7 7 8 9 10 9 8 7 7 6 5
14 13 12 13 10 9 9 8 8 7 4 3 2 2 2 1 1 2 1 1 0 0 1 2 3 4 5 7 7 6 6 5 4 4 5 6 7 7 8 8 9 10 9 9 7 5 4 4 5 6 7 9 9 10 11 12 12 12 11 11 11 12 12 12 12 12 11 10 9 9 9 10 10 9 8 8 9 9 10 10 10 9 9 7 7
15 14 14 14 11 10 9 7 7 6 5 4 3 3 3 2 1 2 2 0 0 0 0 1 2 3 5 7 7 7 5 5 5 4 5 6 7 7 8 8 9 10 10 9 8 6 6 6 7 8 8 9 10 10 11 11 12 12 11 11 10 10 11 11 12 12 12 10 10 9 9 9 10 10 10 10 10 10 10 10 10 11 11 10 8
15 15 15 14 12 10 9 8 7 6 5 4 4 4 3 3 3 3 2 1 0 1 1 1 1 2 3 5 6 7 6 5 5 5 5 6 7 6 6 8 9 10 10 9 8 7 7 8 9 9 9 10 10 10 11 10 10 9 9 10 11 10 10 10 10 11 11 11 12 11 10 9 9 10 10 10 11 12 11 11 11 11 12 11 9
15 15 15 14 13 11 9 9 8 6 6 5 5 4 4 4 3 3 2 2 1 0 2 2 2 3 2 3 4 4 4 4 3 3 4 4 5 6 6 7 8 9 9 8 7 7 8 10 10 10 9 9 9 8 7 6 7 7 8 9 9 9 9 10 11 11 11 12 13 12 11 11 10 10 10 10 12 13 12 11 10 11 12 13 11
15 15 15 14 13 12 9 9 8 7 6 6 5 5 5 4 3 3 3 3 2 2 2 2 2 2 2 2 2 2 3 3 2 2 2 2 3 4 6 7 7 8 8 8 10 10 11 10 10 10 9 8 8 6 5 6 7 8 8 6 5 6 6 7 10 11 12 12 12 12 11 11 11 11 11 11 11 12 13 12 11 12 12 14 14
15 16 15 14 12 12 10 9 9 8 7 6 6 5 5 4 3 4 3 3 4 3 3 3 3 2 2 2 2 2 1 2 1 1 2 2 2 4 5 6 6 6 7 9 13 14 13 11 9 9 9 9 9 8 7 8 7 7 7 5 4 5 6 6 7 9 11 12 11 11 11 11 11 11 11 11 11 11 12 12 12 13 14 14 15
15 16 15 14 13 12 11 10 10 9 8 7 7 6 5 5 4 4 4 4 4 4 3 3 3 3 3 2 2 2 1 1 0 1 2 3 3 3 3 3 3 1 4 8 13 14 13 12 11 9 8 9 9 9 10 8 6 6 7 7 7 8 8 6 6 7 9 11 10 11 11 11 11 11 11 11 11 11 12 13 12 14 15 15 15
15 16 16 15 13 13 12 11 11 10 9 8 7 5 5 5 4 4 5 5 4 5 4 4 4 4 4 4 4 3 2 2 2 2 2 3 3 3 2 2 1 3 2 7 11 12 11 11 11 9 8 9 9 9 9 6 5 4 4 6 8 10 12 10 8 8 8 9 10 11 11 11 12 12 12 12 12 12 12 12 12 13 14 16 17
16 16 16 15 14 13 12 12 11 11 9 8 6 5 3 4 4 4 5 5 5 5 6 5 4 4 5 5 5 4 3 2 2 3 3 3 3 3 3 2 0 3 3 6 9 9 9 10 9 9 10 10 10 9 7 5 3 2 1 3 5 8 10 11 10 9 9 10 10 11 10 9 11 12 12 12 13 12 13 13 13 13 12 13 16
16 16 16 15 15 14 13 12 12 11 10 8 7 5 4 3 4 5 4 5 5 6 7 6 5 5 5 5 4 4 3 2 2 1 2 2 3 3 3 2 1 3 5 6 7 7 7 8 7 9 10 10 11 9 6 6 4 3 2 1 1 2 4 6 7 7 8 9 8 10 11 10 12 14 13 11 13 13 12 13 12 13 12 11 13
16 17 16 16 16 15 14 13 13 12 11 10 8 6 7 5 6 6 5 7 8 7 7 6 6 6 6 5 5 4 4 4 3 2 2 2 3 2 2 2 2 2 4 5 5 5 4 5 6 8 8 7 8 7 4 6 7 5 2 1 0 1 2 1 2 4 4 4 5 6 10 12 13 15 15 14 13 12 11 13 13 13 13 12 12
18 17 18 17 16 16 15 14 14 13 12 12 9 8 9 8 8 8 7 8 8 7 7 7 6 5 6 6 5 5 4 5 4 4 4 3 3 3 2 2 3 3 2 2 2 1 1 2 3 6 6 5 4 5 3 4 7 6 2 1 0 0 1 2 3 3 3 3 4 5 6 8 9 12 14 15 15 15 14 13 14 14 13 13 13
19 18 18 18 16 17 16 15 15 14 13 14 12 10 10 9 9 9 8 8 8 7 7 7 6 6 6 6 6 5 5 5 4 4 4 3 3 3 3 3 2 3 2 1 1 1 1 4 3 2 3 3 2 2 2 2 5 5 4 3 1 0 1 2 2 3 4 6 5 6 6 5 6 7 10 13 13 15 19 15 13 15 14 13 13
20 19 18 19 18 18 17 16 15 15 15 15 14 11 11 10 10 9 8 9 8 8 7 7 7 6 6 6 5 5 4 5 5 4 4 3 3 3 3 3 3 3 2 2 3 3 3 5 5 3 3 4 5 5 3 3 4 4 3 3 1 1 1 1 1 1 3 5 5 6 7 7 7 6 7 12 12 11 13 12 14 12 9 11 12
21 20 19 20 20 19 19 17 16 15 16 17 16 13 12 11 11 10 9 8 9 9 9 8 7 7 7 6 5 5 4 5 5 5 5 4 4 4 3 3 3 3 2 3 3 4 5 6 5 3 3 3 5 5 6 4 2 3 3 2 1 2 1 1 1 1 1 4 4 4 6 7 9 9 10 13 13 13 11 8 11 12 8 10 12
21 21 20 20 21 21 20 18 17 16 17 18 17 15 13 12 12 10 10 9 10 10 9 8 8 7 7 5 5 5 5 5 5 5 5 5 5 5 4 4 4 4 4 4 5 5 5 5 5 5 4 4 5 3 3 3 2 2 2 0 1 3 4 4 5 5 4 6 3 2 3 4 6 10 12 12 12 14 15 12 11 12 12 12 11
22 21 20 20 21 22 21 20 18 17 18 19 19 16 14 13 12 11 11 10 11 10 10 9 8 7 7 6 5 5 5 5 5 5 5 5 5 5 5 5 5 5 5 5 5 5 5 5 5 5 5 5 5 5 4 4 3 2 1 1 1 3 4 4 5 5 5 6 4 3 3 3 4 7 9 11 12 13 14 14 14 14 14 13 13
21 21 21 21 23 23 22 22 20 18 19 20 19 18 15 13 13 12 12 11 11 11 10 10 9 8 8 7 6 5 5 5 5 5 5 6 6 5 5 5 5 5 5 5 5 5 5 5 5 5 5 5 5 5 5 4 4 3 3 3 2 2 3 2 2 3 4 4 5 4 5 6 6 6 7 9 11 11 11 13 14 14 14 13 13
Wind_Direction
137 134 141 149 145 150 151 149 147 144 147 146 148 150 155 159 162 165 163 163 164 163 159 155 152 153 152 152 149 150 150 144 146 150 149 149 151 148 143 144 145 147 143 138 132 122 114 106 100 96 92 90 87 88 96 98 99 102 103 103 106 105 102 99 98 98 98 97 98 99 97 98 97 98 97 88 85 85 79 79 83 81 79 78 77
138 134 142 147 146 149 149 150 147 146 148 147 150 151 156 160 162 164 163 164 164 164 159 155 155 156 157 155 149 149 150 142 142 149 152 152 156 157 155 151 149 151 144 138 132 122 112 107 107 105 100 97 92 93 98 102 105 108 111 114 119 113 103 102 102 102 103 103 104 103 99 96 96 95 93 91 90 85 85 96 94 85 86 86 81
136 133 141 146 147 149 150 151 149 149 148 148 151 151 156 159 163 164 164 166 165 164 159 157 158 160 162 157 149 150 154 143 137 146 155 155 159 163 165 164 158 155 150 146 137 123 117 114 110 107 104 102 99 99 100 105 108 107 111 120 124 114 107 108 106 109 110 109 107 105 101 94 93 91 88 91 95 95 102 107 96 88 90 87 82
134 133 142 145 147 150 151 152 152 152 149 149 150 151 155 158 161 163 165 166 165 164 160 160 161 163 164 158 149 150 155 150 139 141 154 159 163 165 168 170 169 164 156 155 141 124 121 116 110 109 108 106 105 107 107 114 117 115 114 115 122 122 118 116 116 115 108 104 97 94 97 94 88 86 88 88 91 96 99 100 93 89 89 88 86
133 134 141 144 148 152 152 153 154 152 151 150 149 150 152 155 159 162 165 164 166 165 163 163 163 165 164 158 149 148 152 151 146 144 150 155 160 164 166 170 174 168 154 153 142 126 124 118 113 114 113 112 110 111 111 122 133 132 128 122 127 131 125 125 123 109 98 97 94 91 94 96 91 86 89 89 90 93 93 94 93 89 87 92 90
133 135 139 142 148 154 154 154 155 154 153 150 149 150 150 154 158 161 164 165 167 166 166 166 165 166 163 159 150 150 150 150 148 146 147 147 151 156 158 161 163 158 150 149 137 130 132 125 122 121 119 119 115 115 112 124 147 141 137 141 139 137 132 129 117 106 100 96 92 95 97 98 97 92 91 91 91 92 93 92 90 85 82 86 86
133 135 138 141 147 155 155 155 156 155 155 154 151 150 152 154 157 162 164 167 168 167 168 167 167 165 161 159 153 152 151 149 147 145 146 146 149 150 152 154 152 150 151 148 138 141 140 133 132 129 126 125 119 119 114 121 150 145 138 146 145 143 140 124 105 93 95 97 103 106 104 103 99 98 96 95 95 95 94 92 90 86 82 82 82
135 136 139 142 149 156 155 157 157 157 157 155 153 152 155 155 158 162 164 167 166 167 168 167 166 163 160 157 155 154 152 150 148 150 151 151 153 152 154 153 151 150 150 149 149 149 143 140 136 133 131 128 123 120 118 119 142 149 142 147 149 149 150 127 98 75 67 58 116 113 101 107 102 101 98 94 95 95 96 95 93 89 83 80 82
135 137 140 142 152 155 155 159 158 158 157 156 156 155 157 157 159 161 164 165 164 166 167 166 163 161 158 156 156 155 154 152 151 154 156 156 157 157 156 154 151 148 148 152 156 152 147 147 141 141 135 128 124 124 132 131 135 144 147 159 156 139 139 128 97 70 65 66 114 110 100 111 108 105 102 97 93 93 100 101 94 91 88 86 91
133 139 141 143 154 156 156 159 159 159 158 159 158 158 160 159 160 160 163 163 165 168 168 166 162 161 160 160 160 157 156 153 154 156 158 158 161 162 157 155 152 149 154 158 159 155 152 152 149 145 137 130 128 133 143 144 139 139 154 176 163 116 113 119 88 58 67 107 111 103 101 101 100 104 106 102 98 100 107 106 97 97 97 90 92
134 139 140 146 155 156 158 160 160 161 160 162 161 161 162 160 162 162 165 167 170 172 170 168 165 165 164 165 162 160 159 157 158 158 160 162 164 164 158 158 154 154 159 161 160 157 155 157 156 146 142 142 134 134 136 140 144 143 161 181 182 98 120 118 86 48 75 110 94 105 108 90 92 104 105 101 102 102 102 101 95 98 99 91 91
138 138 139 149 156 157 159 161 161 162 163 164 164 164 164 163 164 165 168 170 172 173 172 170 169 169 168 168 165 165 164 162 164 162 164 165 171 169 164 162 156 159 161 160 160 161 163 164 165 152 149 150 134 127 124 126 137 138 128 153 224 128 129 108 68 55 103 102 98 119 115 92 96 104 102 99 103 103 101 101 96 96 96 91 89
135 135 140 149 156 159 159 162 163 164 165 167 168 167 166 165 167 169 170 171 172 173 173 173 174 173 173 172 171 171 171 171 170 169 170 167 174 173 168 164 159 161 162 162 159 164 175 174 171 155 148 152 139 123 111 100 93 82 76 99 139 125 111 66 44 167 128 105 107 123 112 99 104 105 105 104 107 108 106 104 99 98 95 90 85
130 132 137 145 154 160 160 162 165 166 167 170 172 170 169 168 170 172 172 173 173 175 176 178 178 178 178 177 177 179 179 182 178 175 174 168 170 171 168 166 159 158 164 168 162 166 176 175 169 158 153 152 142 123 101 79 68 66 72 90 129 129 111 70 46 108 127 113 111 120 113 111 116 111 112 112 112 111 109 108 102 101 98 93 86
129 131 133 142 152 158 161 163 166 168 170 173 175 174 173 174 174 174 176 178 178 180 181 181 183 182 182 183 184 186 187 189 186 180 176 172 169 172 172 168 161 156 164 171 169 169 166 165 169 168 161 150 138 123 90 64 58 64 76 90 128 136 136 149 356 112 129 124 122 122 115 121 131 122 119 117 115 114 111 110 105 104 101 96 91
129 132 133 141 148 155 159 163 167 169 173 177 177 177 179 180 179 179 180 183 184 185 185 185 187 187 187 189 190 189 190 191 190 185 180 178 172 176 180 172 168 159 159 167 171 169 163 162 170 171 157 151 144 130 88 63 58 63 81 87 123 141 136 111 3 133 136 121 129 123 118 129 139 128 123 119 118 118 113 110 107 105 101 97 94
131 134 136 142 146 152 155 160 168 173 177 179 179 180 181 184 184 185 185 186 188 189 190 190 190 191 192 193 194 189 188 190 192 191 187 186 179 181 185 179 178 171 163 168 173 167 166 169 172 167 153 151 151 137 93 74 66 69 86 86 114 133 113 81 40 149 126 120 125 116 124 130 133 129 124 121 120 118 114 113 109 106 103 99 96
135 137 138 144 148 152 153 159 169 176 180 180 182 182 184 185 186 188 187 188 190 193 194 194 195 196 198 198 198 192 190 194 196 197 194 193 189 184 185 185 184 182 175 176 177 173 176 178 173 162 153 154 158 151 109 86 79 80 90 91 112 127 114 95 89 117 114 134 123 124 140 132 126 128 126 125 122 120 117 117 112 108 105 100 97
137 139 140 146 148 151 152 156 167 177 182 182 183 185 188 186 187 188 188 190 190 194 195 197 199 197 201 199 197 196 195 194 197 203 199 195 193 186 184 186 189 188 186 185 183 184 185 184 174 164 160 163 167 173 171 105 94 91 97 97 105 122 114 85 116 135 121 133 109 129 153 137 125 127 127 125 123 124 122 120 116 111 106 100 97
135 140 143 148 148 149 147 148 161 175 179 182 184 187 191 190 188 189 190 191 191 194 193 196 201 198 198 198 196 195 194 196 195 199 198 193 189 192 193 191 196 194 191 192 190 189 188 186 178 173 173 176 179 190 218 266 126 103 108 111 114 127 98 355 314 152 123 115 111 129 163 136 129 129 128 126 125 125 123 121 119 115 110 104 98
136 139 144 145 146 145 140 143 158 171 173 175 182 188 194 194 192 194 195 194 194 196 193 197 202 200 200 200 198 191 191 199 194 191 193 187 182 194 201 198 201 198 193 191 193 195 190 187 183 185 189 190 192 205 238 265 257 201 129 131 133 163 244 321 195 163 126 120 132 181 263 143 134 132 132 128 126 122 120 122 122 119 114 109 103
140 139 144 144 146 143 136 142 154 164 166 165 171 183 193 191 191 198 198 199 199 197 197 200 200 203 207 202 197 192 195 200 194 189 190 184 181 194 201 197 199 197 195 192 197 203 198 193 194 199 203 204 204 214 245 264 259 260 240 198 159 193 226 216 200 193 158 123 134 279 253 144 139 138 137 133 129 125 126 127 128 127 124 119 111
145 144 149 154 155 150 140 142 151 159 162 161 167 173 181 184 188 197 197 200 200 200 205 203 201 207 213 208 198 198 207 208 198 190 193 189 184 192 195 195 198 198 198 197 203 209 205 203 206 210 213 213 208 208 222 243 256 263 262 245 201 198 204 205 219 200 154 123 123 331 128 136 137 143 145 145 137 133 137 136 138 136 133 129 120
151 150 152 163 163 155 146 145 150 154 155 155 163 168 172 174 180 192 196 200 195 198 210 206 205 207 206 211 208 203 211 204 192 187 194 196 190 192 193 194 198 203 203 198 206 217 211 208 211 213 211 211 206 208 211 209 231 248 246 236 215 201 194 196 211 200 152 132 129 338 135 133 132 146 148 150 144 140 146 146 148 147 144 136 132
154 153 151 162 162 159 150 147 150 150 153 154 159 170 176 174 178 188 190 193 191 197 211 211 212 212 206 210 212 207 212 203 188 185 194 198 196 197 197 197 197 203 205 197 202 214 211 205 209 210 206 208 206 211 221 207 209 228 226 223 221 208 196 196 199 197 160 147 172 321 145 136 132 147 146 149 148 148 150 148 155 155 154 145 141
157 153 151 158 159 166 155 151 156 151 156 163 167 173 177 180 188 198 191 189 197 199 206 211 220 223 212 208 212 212 214 207 182 182 197 201 199 204 203 198 199 205 206 202 200 207 207 202 206 209 209 214 210 206 216 211 204 221 226 219 218 212 202 193 187 192 164 158 206 290 151 143 140 147 149 150 145 153 158 153 155 148 160 159 145
156 152 151 157 161 167 155 154 159 150 161 171 169 170 177 184 189 197 191 188 197 200 200 202 220 225 211 208 212 211 206 196 176 184 207 210 201 201 199 197 203 210 209 206 203 202 203 203 205 211 214 216 216 209 208 211 209 218 227 224 220 219 210 193 186 191 164 159 189 243 138 148 147 147 154 157 143 157 166 160 161 135 158 166 154
154 153 152 159 164 159 151 156 152 147 171 176 162 167 180 185 186 190 189 190 195 199 201 196 203 209 208 207 204 203 196 191 187 195 211 213 206 200 196 203 208 210 210 207 204 204 205 209 209 212 217 217 217 214 210 211 213 217 223 221 220 220 215 202 190 187 169 165 179 158 112 143 150 149 157 170 157 160 167 166 173 159 145 158 163
152 153 154 159 158 149 148 149 141 148 166 168 158 165 176 180 185 191 188 192 195 198 199 191 192 198 201 200 197 203 198 196 198 200 205 207 211 209 204 212 211 210 211 205 206 209 210 213 210 212 218 217 214 213 213 212 211 216 219 215 215 215 212 205 197 191 183 174 182 179 124 133 149 152 159 172 174 168 173 172 174 176 161 159 163
148 148 155 153 146 145 148 144 139 145 148 152 160 158 178 194 189 192 189 192 193 192 190 187 192 190 184 186 196 205 202 208 212 209 212 209 209 215 215 218 218 219 215 203 210 214 211 212 207 212 214 212 213 210 213 216 211 213 221 218 213 212 209 205 204 203 195 181 186 191 182 160 155 158 163 170 176 180 185 175 174 187 185 175 175
146 149 153 144 144 148 145 138 132 130 137 147 146 151 188 210 194 195 200 193 185 185 178 180 187 172 170 183 194 203 208 217 223 220 223 220 213 215 223 229 229 231 227 216 215 211 208 204 199 209 209 211 224 217 213 218 215 211 217 219 213 210 211 209 208 209 204 192 190 195 209 202 175 170 169 167 172 180 191 182 178 191 188 179 191
148 153 148 139 147 145 132 128 126 130 134 130 130 153 181 199 201 193 173 157 171 181 156 158 144 142 161 184 196 205 212 220 229 224 219 225 225 220 224 234 236 234 231 226 221 210 207 204 203 208 203 211 228 224 217 220 221 215 213 215 214 213 212 212 213 213 211 204 196 194 206 212 203 191 183 177 172 175 185 191 191 188 188 184 189
150 150 140 138 144 129 123 123 125 137 134 108 124 143 140 150 168 133 111 133 169 184 171 166 122 128 154 183 203 213 217 219 225 219 215 222 227 226 224 229 232 229 222 217 214 212 211 206 207 207 201 206 212 215 220 220 219 220 220 216 213 216 215 212 213 214 214 212 207 200 203 211 213 205 194 193 186 178 179 187 195 190 191 195 190
148 147 142 142 141 126 127 127 125 139 137 114 108 107 106 93 134 128 92 97 121 145 190 177 129 133 157 176 200 215 216 213 209 207 215 227 228 229 229 226 224 221 216 212 208 206 206 194 201 206 201 205 206 206 215 218 216 218 225 225 216 216 219 218 214 212 212 214 215 210 206 206 206 208 206 205 202 193 186 185 189 191 194 203 198
147 148 146 145 144 134 135 132 129 137 133 121 101 87 95 85 87 103 80 18 195 127 112 148 142 171 180 180 198 215 218 214 216 217 219 231 234 231 226 221 217 215 214 211 203 201 205 204 209 210 201 205 209 206 211 217 218 216 217 225 226 222 224 226 223 217 213 214 219 219 216 211 204 202 201 204 211 207 202 197 192 190 195 203 202
149 149 148 148 148 142 139 139 139 137 133 129 116 101 103 98 74 82 70 9 217 188 153 151 132 154 180 180 196 214 224 227 227 231 231 234 238 235 224 216 212 209 209 206 201 202 207 214 221 219 208 207 209 208 211 215 219 221 218 220 225 228 229 232 234 230 222 219 222 220 217 220 215 205 198 198 210 214 210 208 205 198 197 203 205
151 152 151 152 152 147 143 144 146 143 141 138 128 120 115 110 95 93 74 57 40 39 148 165 147 132 137 146 163 185 205 215 217 223 230 230 232 232 225 221 215 204 200 195 197 210 213 216 222 222 215 211 214 212 211 221 231 232 228 226 224 226 229 229 231 234 230 227 225 220 214 216 216 211 205 203 207 213 213 210 211 210 205 207 211
152 156 154 155 156 151 149 148 149 151 147 144 138 130 123 115 99 92 76 80 74 42 63 92 108 118 108 110 121 129 147 160 179 215 227 225 222 227 224 225 217 202 194 187 193 210 216 218 221 220 217 218 225 223 214 226 234 233 235 244 237 234 243 239 236 233 231 233 228 222 219 214 213 211 208 210 209 210 214 213 212 217 217 214 216
155 158 156 157 158 153 154 152 153 155 150 149 144 136 134 130 119 119 115 111 105 80 63 64 64 68 79 84 81 94 102 102 123 245 258 249 231 232 228 227 227 207 193 197 204 212 214 218 227 224 217 222 231 224 216 220 228 245 264 279 260 257 262 252 254 247 237 238 231 226 229 220 213 214 211 213 216 210 210 214 215 218 222 221 220
159 161 158 160 160 156 158 156 158 158 153 158 156 156 157 146 141 140 133 114 101 92 80 75 74 66 70 67 58 62 46 41 3 302 287 278 263 252 239 233 247 184 171 204 216 221 219 221 231 235 226 224 227 217 211 216 225 252 275 281 280 284 277 264 273 267 249 247 238 231 235 230 223 221 220 219 219 216 209 213 216 213 217 224 222
163 164 161 164 164 161 162 159 160 160 160 167 166 168 161 145 148 146 135 124 120 119 103 83 80 68 57 57 54 51 44 19 345 329 305 288 275 274 274 258 290 79 143 211 220 227 230 231 235 244 242 229 227 219 209 212 229 254 284 291 284 282 278 275 278 276 272 268 253 242 241 239 234 225 223 225 223 222 215 212 215 213 217 226 225
168 171 168 168 168 167 165 161 161 163 165 167 164 164 147 139 147 142 135 128 121 118 113 99 89 79 60 54 52 49 48 32 7 345 318 309 292 290 298 286 307 101 146 201 222 231 230 233 235 242 249 243 239 233 209 204 226 244 312 324 295 281 276 269 265 269 280 281 268 258 256 260 259 244 230 226 224 224 222 218 217 219 225 227 222
173 177 176 173 173 173 169 164 163 163 164 162 159 155 137 124 125 123 120 116 99 86 98 104 95 87 74 62 59 57 57 61 52 16 341 340 329 323 335 344 58 129 144 171 216 229 213 220 228 235 247 251 252 248 213 204 204 148 161 251 325 308 279 257 251 253 261 271 273 266 265 275 282 269 254 244 234 226 225 225 221 220 225 230 221
179 180 180 178 178 177 172 167 165 162 162 161 156 147 136 125 117 113 103 107 110 102 106 108 97 92 81 69 69 70 66 67 62 54 58 29 9 6 359 24 58 105 131 152 197 215 203 214 221 226 236 239 247 257 235 214 208 175 156 191 118 266 252 264 277 260 252 269 280 281 278 281 287 279 273 276 267 249 234 227 224 222 221 226 228
184 183 182 182 180 178 174 167 165 163 161 160 155 146 143 139 132 129 117 116 125 131 127 116 108 103 89 81 80 79 73 67 58 49 60 58 47 44 37 52 63 72 101 141 153 147 149 179 208 216 224 222 229 250 245 213 205 198 179 164 118 230 224 6 340 295 305 307 276 286 295 285 291 287 283 290 287 284 283 254 227 221 220 222 226
185 183 182 182 179 178 175 169 166 164 161 160 158 153 155 155 151 150 146 143 144 143 135 125 120 109 98 95 89 83 76 70 63 56 59 60 60 57 53 61 63 63 58 55 71 66 101 85 83 125 178 190 166 198 227 181 177 189 193 195 221 189 115 24 337 307 324 321 295 290 296 286 301 305 295 294 283 286 304 294 249 226 218 222 226
186 182 180 180 180 177 175 171 168 166 163 162 162 161 164 166 166 162 159 157 149 137 131 127 120 111 108 107 99 93 86 78 73 71 73 66 62 62 52 48 58 63 45 32 35 6 26 56 61 79 105 126 119 107 95 101 148 167 165 164 192 253 106 92 214 310 331 315 304 293 288 287 293 301 306 303 289 285 303 295 271 259 229 226 236
184 182 180 179 179 177 176 173 170 167 165 165 166 168 170 171 174 170 165 161 147 137 135 131 124 119 119 118 113 107 97 88 84 81 84 78 72 71 62 52 56 63 63 59 41 27 36 42 40 44 62 92 97 106 115 112 132 129 107 122 167 222 221 160 199 101 2 287 295 290 288 293 296 302 308 305 294 291 293 276 278 292 280 251 248
185 184 180 178 177 176 176 175 173 169 167 167 168 172 175 175 177 175 169 160 147 146 145 138 132 129 127 125 121 115 105 97 91 88 88 84 80 77 74 67 58 54 59 66 58 51 55 49 46 48 43 48 48 63 121 119 104 97 79 339 236 239 244 219 196 192 220 256 267 249 267 275 285 296 296 290 282 281 284 279 279 285 280 275 265
188 184 179 177 176 176 177 176 175 171 169 169 170 174 178 177 180 179 172 160 153 156 152 144 144 141 137 136 132 129 123 112 102 100 96 92 89 82 79 74 61 57 61 69 71 66 66 61 61 62 54 52 46 40 56 66 60 60 45 333 283 269 262 227 205 215 241 265 277 273 267 246 248 261 260 265 272 273 274 272 271 271 271 275 271
189 184 178 176 176 178 178 178 177 174 172 171 171 175 179 180 182 180 174 164 159 161 156 154 158 155 152 153 151 147 138 130 122 116 111 105 100 90 85 81 72 68 67 71 72 70 72 70 67 69 63 58 58 53 51 49 50 45 27 12 5 347 336 329 323 329 317 303 304 304 296 283 273 260 245 254 266 267 265 262 259 257 255 257 259